Find Starlink 33886

NORAD ID: 63681 Int'l Des: 2025-085 Owner: SPXS Country: US Constellation: starlink operational
LEOCIRCULAR

Live-Position

3D-Globus wird geladen...

Über Starlink 33886

Beschreibung wird geladen...

Nächste Überflüge

Passes for default location (London). Set your location on the main map for personalized predictions.

Höhenverlauf

Loading altitude history...

Zweizeiliger Elementsatz

1 63681U 25085T 26133.93188398 .00014539 00000-0 53640-3 0 9991
2 63681 43.0058 21.9608 0001473 267.2677 92.8007 15.27606559 58852
Epoch: 13. Mai 2026 • Age: 16 hours

Aktueller Status

Höhe 487.1 km
Geschwindigkeit 7.63 km/s
Subsatellitenpunkt 43.13°N, 16.36°E
Startdatum 28. Apr. 2025
Alter 1 years
Typ internet

Technische Details

Klassifizierung Payload
Masse 575.00 kg
Trockenmasse 530.00 kg
Gesamtmasse 575.00 kg
Länge 0.30 m
Durchmesser 4.10 m
Spannweite 29.00 m
Form Box + pan
Hersteller SPXS
Bus-Typ Starlink V2MO
Phasenstatus In Orbit
Besitzer/Staat SPXS/US

Most Searched